XIWANG-1 (HOPE-1)

Last updated on Mon Nov 03 2025 00:03:21 GMT+0000 (Coordinated Universal Time)

1 36122U 09072B 25306.46189556 -.00000017 00000+0 72412-4 0 9990 2 36122 100.3701 259.2630 0007917 35.3279 324.8357 13.16430599763175
UTC large
Height (km)
Speed (km/s)
/
Latitude / Longitude
Inclination (degrees)
Orbital Period (minutes)
Azimuth
Elevation
Range (km)
Doppler Factor

Next 0 passes for location: London (51.5072 / 0.1276)

Sorry there are no passes over London.